Home > Weather > Monheim am Rhein > Past weeks

Flag for Germany Past Weather in Monheim am Rhein, North Rhine-Westphalia, Germany — Yesterday and Last 2 Weeks

Now
75 °F

Sunny.


Feels Like: 78 °F
Forecast: 69 / 90 °F
Wind: 13 mph from South

Location: Duesseldorf

Current Time: Aug 25, 2016 at 8:37:04 AM

Latest Report: Aug 25, 2016 at 8:20 AM


Visibility: 10 mi

Pressure: 30.04 "Hg

Humidity: 57%

Dew Point: 59 °F

Location of Monheim am RheinLocation

Past Weather in Monheim am Rhein — Graph

°F

Monheim am Rhein Temperature Yesterday

Maximum temperature yesterday: 88 °F (at 2:50 PM)
Minimum temperature yesterday: 61 °F (at 6:20 AM)
Average temperature yesterday: 75 °F

High & Low Weather Summary for the Past Weeks

 TemperatureHumidityPressure
High88 °F (Aug 24, 2:50 PM)100% (Aug 10, 11:20 PM)30.33 "Hg (Aug 10, 11:20 PM)
Low45 °F (Aug 11, 3:20 AM)34% (Aug 18, 5:20 PM)29.77 "Hg (Aug 18, 2:50 PM)
Average65 °F74%30.09 "Hg
* Reported Aug 10 7:20 AM — Aug 25 7:20 AM, Monheim am Rhein, Weather by CustomWeather, © 2016

Note: Actual official high and low records may vary slightly from our data, if they occured in-between our weather recording intervals... More about our weather records

Advertising

Monheim am Rhein Weather History for the Previous 24 Hours

Scroll right to see more
 ConditionsComfort  
Time TempWeatherWind HumidityBarometerVisibility
7:20 AM
Thu, Aug 25
73 °FPassing clouds.10 mph61%30.04 "HgN/A
6:50 AM72 °FClear.10 mph65%30.04 "Hg10 mi
6:20 AM72 °FPassing clouds.9 mph65%30.07 "HgN/A
5:50 AM72 °FClear.9 mph65%30.04 "Hg10 mi
5:20 AM72 °FClear.9 mph65%30.07 "Hg10 mi
4:50 AM72 °FClear.9 mph69%30.07 "Hg10 mi
4:20 AM72 °FClear.10 mph69%30.07 "Hg10 mi
3:50 AM72 °FClear.10 mph69%30.07 "Hg10 mi
3:20 AM72 °FClear.9 mph69%30.07 "Hg10 mi
2:50 AM73 °FClear.9 mph65%30.07 "Hg10 mi
2:20 AM73 °FClear.8 mph65%30.07 "Hg10 mi
1:50 AM73 °FClear.6 mph65%30.07 "Hg10 mi
1:20 AM72 °FPassing clouds.5 mph69%30.07 "HgN/A
12:50 AM73 °FClear.7 mph65%30.07 "Hg10 mi
12:20 AM72 °FClear.7 mph73%30.09 "Hg10 mi
11:50 PM
Wed, Aug 24
72 °FClear.6 mph73%30.09 "Hg10 mi
11:20 PM68 °FClear.6 mph83%30.09 "Hg10 mi
10:50 PM70 °FClear.6 mph78%30.09 "Hg10 mi
10:20 PM73 °FPassing clouds.6 mph69%30.09 "HgN/A
9:50 PM77 °FClear.7 mph61%30.09 "Hg10 mi
9:20 PM77 °FSunny.7 mph61%30.09 "Hg10 mi
8:50 PM75 °FPassing clouds.6 mph65%30.09 "HgN/A
8:20 PM82 °FPassing clouds.7 mph48%30.09 "HgN/A
7:50 PM86 °FPassing clouds.8 mph40%30.09 "HgN/A
7:20 PM86 °FPassing clouds.9 mph40%30.09 "HgN/A
6:50 PM88 °FSunny.10 mph38%30.09 "Hg10 mi
6:20 PM88 °FPassing clouds.9 mph40%30.09 "HgN/A
5:50 PM88 °FPassing clouds.13 mph40%30.12 "HgN/A
5:20 PM88 °FSunny.12 mph40%30.12 "Hg10 mi
4:50 PM88 °FPassing clouds.12 mph40%30.12 "HgN/A
4:20 PM88 °FPassing clouds.10 mph38%30.12 "HgN/A
3:50 PM88 °FPassing clouds.13 mph38%30.12 "HgN/A
3:20 PM88 °FPassing clouds.13 mph38%30.12 "HgN/A
2:50 PM88 °FPassing clouds.12 mph38%30.15 "HgN/A
2:20 PM86 °FPassing clouds.13 mph38%30.15 "HgN/A
1:50 PM86 °FSunny.15 mph43%30.15 "Hg10 mi
1:20 PM84 °FPassing clouds.14 mph45%30.15 "HgN/A
12:50 PM84 °FPassing clouds.14 mph45%30.15 "HgN/A
12:20 PM82 °FPassing clouds.17 mph45%30.18 "HgN/A
11:50 AM84 °FSunny.15 mph48%30.18 "Hg10 mi
11:20 AM81 °FPassing clouds.16 mph51%30.18 "HgN/A
10:50 AM79 °FPassing clouds.10 mph54%30.18 "HgN/A
10:20 AM77 °FSunny.12 mph54%30.18 "Hg10 mi
9:50 AM75 °FPassing clouds.12 mph57%30.18 "HgN/A
9:20 AM73 °FSunny.12 mph61%30.21 "Hg10 mi
8:50 AM72 °FPassing clouds.8 mph61%30.21 "HgN/A
8:20 AM70 °FPassing clouds.5 mph64%30.21 "HgN/A
Weather by CustomWeather, © 2016

See weather overviewHow to use our weather pages